Weather History for KRXE - March, 2012

Change the Weather History Date:

Friday, March 2, 2012

  Actual Average Record
Temperature  
Mean Temperature 15 °F 28 °F  
Max Temperature 28 °F 38 °F 46 °F (2009)
Min Temperature 1 °F 18 °F -10 °F (2002)
Degree Days  
Heating Degree Days 50 37  
Month to date heating degree days 92 75  
Since 1 July heating degree days 5533 6048  
Cooling Degree Days 0 0  
Month to date cooling degree days 0 0  
Year to date cooling degree days 0 0  
Moisture  
Dew Point 12 °F    
Average Humidity 77    
Maximum Humidity 95    
Minimum Humidity 58    
Precipitation  
Precipitation 0.00 in 0.03 in 0.24 in (1979)
Month to date precipitation 0.10 0.06  
Year to date precipitation 1.82 1.63  
Sea Level Pressure  
Sea Level Pressure 30.29 in    
Wind  
Wind Speed 11 mph (SSW)    
Max Wind Speed 23 mph    
Max Gust Speed 30 mph    
Visibility 10 miles    
Events      
T = Trace of Precipitation, MM = Missing Value Source: NWS Daily Summary

Daily Weather History Graph

Daily Weather History Graph

Search for Another Location

Airport or City:

Trip Planner

Search our weather history database for the weather conditions in past years. The results will help you decide how hot, cold, wet, or windy it might be!

Date:

Astronomy

Mar. 02, 2012 Rise Set
Actual Time 7:01 AM MST 6:17 PM MST
Civil Twilight 6:32 AM MST 6:46 PM MST
Nautical Twilight 5:59 AM MST 7:19 PM MST
Astronomical Twilight 5:25 AM MST 7:53 PM MST
Moon 12:24 PM MST (3/2) 3:03 AM MST (3/2)
Length of Visible Light 12h 14m
Length of Day
11h 16m
Waxing Gibbous, 67% of the Moon is Illuminated
Mar 2
Waxing Gibbous
Mar 8
Full
Mar 14
Last Quarter
Mar 22
New
Mar 30
First Quarter

Hourly Weather History & Observations

Time (MST) Temp. Windchill Dew Point Humidity Pressure Visibility Wind Dir Wind Speed Gust Speed Precip Events Conditions
12:53 AM 19.0 °F 13.9 °F 12.9 °F 77% 30.06 in 10.0 mi North 3.5 mph - N/A   Clear
1:53 AM 14.0 °F 5.1 °F 10.9 °F 88% 30.11 in 10.0 mi ENE 5.8 mph - N/A   Clear
2:53 AM 12.9 °F 5.2 °F 6.1 °F 74% 30.14 in 10.0 mi Variable 4.6 mph - N/A   Clear
3:53 AM 8.1 °F 1.4 °F 3.9 °F 83% 30.18 in 10.0 mi NE 3.5 mph - N/A   Clear
4:53 AM 6.1 °F -0.9 °F 1.9 °F 83% 30.23 in 10.0 mi SSW 3.5 mph - N/A   Clear
5:53 AM 6.1 °F -2.8 °F 3.9 °F 91% 30.26 in 10.0 mi SSW 4.6 mph - N/A   Clear
6:53 AM 1.9 °F -9.2 °F -0.9 °F 88% 30.32 in 10.0 mi ENE 5.8 mph - N/A   Clear
7:53 AM 12.9 °F 0.7 °F 8.1 °F 81% 30.30 in 10.0 mi South 9.2 mph - N/A   Clear
8:53 AM 16.0 °F 4.4 °F 12.9 °F 88% 30.32 in 10.0 mi South 9.2 mph - N/A   Partly Cloudy
9:53 AM 18.0 °F 6.9 °F 14.0 °F 84% 30.33 in 10.0 mi SSW 9.2 mph - N/A   Clear
10:53 AM 21.0 °F 8.1 °F 12.9 °F 71% 30.34 in 10.0 mi SSW 13.8 mph - N/A   Mostly Cloudy
11:53 AM 23.0 °F 10.6 °F 14.0 °F 68% 30.35 in 10.0 mi SSW 13.8 mph - N/A   Overcast
12:53 PM 25.0 °F 12.2 °F 15.1 °F 66% 30.32 in 10.0 mi SSW 16.1 mph - N/A   Overcast
1:53 PM 27.0 °F 15.6 °F 16.0 °F 63% 30.30 in 10.0 mi SSW 13.8 mph 20.7 mph N/A   Clear
2:53 PM 28.0 °F 16.1 °F 15.1 °F 58% 30.30 in 10.0 mi SSW 16.1 mph 23.0 mph N/A   Scattered Clouds
3:53 PM 27.0 °F 13.2 °F 16.0 °F 63% 30.33 in 10.0 mi SW 20.7 mph 27.6 mph N/A   Clear
4:53 PM 27.0 °F 14.3 °F 16.0 °F 63% 30.33 in 10.0 mi SSW 17.3 mph 25.3 mph N/A   Clear
5:53 PM 25.0 °F 13.1 °F 17.1 °F 72% 30.35 in 10.0 mi SSW 13.8 mph 24.2 mph N/A   Clear
6:53 PM 25.0 °F 13.6 °F 17.1 °F 72% 30.37 in 10.0 mi SSW 12.7 mph - N/A   Mostly Cloudy
7:53 PM 24.1 °F 11.0 °F 17.1 °F 75% 30.33 in 10.0 mi SSW 16.1 mph - N/A   Overcast
8:53 PM 24.1 °F 12.5 °F 16.0 °F 71% 30.34 in 10.0 mi SSW 12.7 mph 19.6 mph N/A   Mostly Cloudy
9:53 PM 24.1 °F 12.5 °F 16.0 °F 71% 30.33 in 10.0 mi South 12.7 mph - N/A   Overcast
10:53 PM 24.1 °F 11.0 °F 16.0 °F 71% 30.32 in 10.0 mi South 16.1 mph - N/A   Overcast
11:53 PM 24.1 °F 13.1 °F 17.1 °F 75% 30.34 in 10.0 mi SSW 11.5 mph - N/A   Overcast